Location: *
(35.8942°N, 23.3025°E)
Time: 17:55:06
(UTC+00:00)

Gurwin Techsat 1B - Pass Details

Date: 06 April 2023
Orbit: 811 x 813 km, 98.9° (Epoch: 03 June)

Event Time Altitude Azimuth Distance (km) Brightness Sun altitude
Rises 00:08:32 0° 33° (NNE) 3,342 12.7 -41.8°
Reaches altitude 10° 00:11:40 10° 52° (NE) 2,406 11.7 -41.5°
Enters shadow 00:13:19 15° 69° (ENE) 2,067 11.1 -41.3°
